Theta_e
318 316 314 315 317 317 315 318 318 316 316 317 315 314 314 314 314 313 314 312 314 315 314 314 314 314 316 318 319 316 314 316 318 318 322 323 323 322 323 325 328 328 328 328 328 328 327
320 318 317 314 314 317 315 316 318 316 315 317 316 315 313 314 314 312 313 313 313 314 315 312 312 313 315 317 312 314 315 316 317 321 321 321 322 321 322 321 323 327 328 327 327 327 326
317 320 318 317 315 315 316 315 317 317 316 314 316 316 313 312 313 312 313 314 314 314 312 312 311 313 315 313 313 313 314 316 316 315 315 322 322 322 323 324 322 326 329 329 330 328 329
314 317 320 318 316 314 316 315 316 317 317 315 316 315 314 311 311 312 311 312 312 314 313 314 311 314 314 312 312 312 312 313 314 314 313 313 317 318 322 322 322 327 329 333 329 329 328
309 313 315 318 316 315 315 315 316 317 317 316 314 314 313 311 311 312 311 312 311 312 312 311 311 313 313 311 312 312 313 312 312 313 313 313 314 318 319 323 325 325 329 330 331 328 329
306 308 312 315 318 315 315 315 316 317 316 317 315 313 313 313 310 312 311 310 311 311 310 312 313 313 312 312 311 312 312 312 312 311 312 316 315 317 318 323 325 325 327 327 331 328 329
306 307 308 310 314 317 314 314 315 315 316 316 316 315 313 313 309 311 311 309 310 310 312 310 311 311 312 312 311 312 311 311 312 312 313 312 317 319 317 318 320 320 323 327 327 328 329
305 306 306 309 313 313 316 314 314 314 316 316 315 316 313 313 308 311 311 312 311 310 313 311 311 311 311 312 313 312 311 312 313 314 312 313 315 315 315 316 319 321 323 324 323 326 329
303 306 307 307 309 310 313 315 314 314 316 316 315 315 313 312 309 311 311 311 311 311 312 313 312 312 312 312 313 313 312 311 313 313 313 314 313 313 315 315 318 319 322 322 323 325 328
303 303 305 306 308 309 311 314 316 314 315 316 315 314 313 310 310 310 310 310 311 312 313 313 310 313 313 313 314 312 312 312 313 313 313 313 312 313 315 316 315 318 317 320 323 326 334
301 302 304 305 306 307 311 310 314 315 315 316 315 314 312 308 309 310 311 311 312 311 313 311 312 310 312 313 313 312 312 313 314 313 313 314 313 314 314 315 315 316 315 318 323 328 329
300 301 302 304 306 307 309 309 311 314 315 316 315 313 311 310 310 312 311 311 310 313 311 315 313 313 313 314 314 312 312 312 313 314 313 312 311 313 313 313 314 316 319 321 324 325 330
298 300 302 303 304 306 307 308 310 310 315 316 315 312 310 309 309 311 310 308 314 314 312 316 315 313 313 315 314 313 314 316 316 316 315 314 314 312 314 315 315 316 319 324 323 327 328
297 299 301 303 303 305 306 306 307 308 315 316 314 311 309 309 310 310 309 313 317 313 313 314 313 313 315 313 315 314 313 316 314 312 313 313 311 314 313 315 315 316 317 322 322 327 325
297 299 301 302 302 303 305 306 304 310 315 316 313 311 309 310 311 309 309 313 314 314 317 317 315 317 317 314 313 315 313 314 313 312 311 316 314 313 313 315 316 316 320 319 323 327 330
297 298 299 301 302 302 303 303 304 306 315 316 313 311 310 310 310 309 313 313 314 315 316 316 319 315 315 313 315 313 314 313 313 311 310 314 315 314 315 315 316 317 319 323 324 331 335
296 297 298 300 300 302 304 303 303 308 315 316 313 313 312 310 310 311 314 313 314 314 315 316 317 317 313 313 313 313 311 311 311 312 311 313 313 314 317 319 321 319 322 323 323 323 334
296 297 298 300 300 303 303 304 305 306 311 314 312 317 312 310 314 313 315 313 314 316 315 316 315 316 316 312 312 310 311 310 312 311 313 314 316 318 315 320 317 320 323 323 323 327 326
296 297 297 299 300 302 300 303 305 311 314 312 315 315 312 311 315 315 314 315 314 316 317 318 317 317 315 314 316 312 312 312 312 313 315 315 317 319 322 323 322 324 323 325 325 326 327
297 296 297 298 300 302 303 303 304 308 314 313 315 318 315 314 314 314 315 316 317 315 315 316 318 317 319 315 313 314 311 313 313 313 316 314 318 320 324 327 325 328 322 327 325 327 322
297 296 296 297 300 301 302 302 303 305 314 313 314 317 314 315 315 316 316 318 319 318 315 316 317 317 318 316 312 313 315 314 314 319 315 315 317 313 316 318 322 325 326 323 320 326 322
296 296 296 297 300 301 302 301 302 303 311 313 314 315 314 315 313 315 316 319 319 318 318 320 319 319 318 320 313 314 315 315 313 316 314 312 316 316 326 326 327 327 326 326 325 326 324
297 296 296 297 299 300 301 302 301 302 306 313 312 312 315 317 316 317 317 315 318 317 317 316 317 319 320 319 319 317 317 312 314 311 313 315 317 325 325 327 328 329 327 325 324 323 324
297 295 296 296 299 300 301 302 301 302 304 308 312 312 314 317 316 318 317 316 317 318 318 317 317 317 317 317 318 318 319 314 314 313 311 313 318 323 324 319 323 319 316 322 323 323 321
296 296 296 296 298 300 301 302 302 303 304 311 311 313 315 318 316 316 314 311 316 317 318 318 317 313 317 319 321 323 321 320 317 314 315 316 317 323 323 322 321 317 315 318 322 322 319
296 296 295 296 298 299 300 302 301 303 304 309 312 312 311 315 316 314 312 315 315 315 316 316 311 309 317 320 323 324 325 323 321 322 316 317 319 324 320 320 327 318 315 313 315 320 313
296 296 295 296 298 299 301 302 301 303 305 310 312 312 311 313 313 314 314 315 315 316 316 313 313 313 314 321 324 321 322 318 322 323 323 323 322 321 322 323 319 316 314 312 320 318 313
296 296 295 296 297 299 300 302 302 303 305 310 311 312 311 312 312 311 309 311 314 314 317 313 316 315 317 321 323 322 323 320 320 319 321 323 324 325 324 325 323 314 314 315 313 313 311
296 296 295 296 297 298 300 301 302 302 305 308 310 311 311 311 312 310 310 310 311 312 313 312 315 316 317 320 320 319 316 319 319 323 317 324 320 323 323 321 316 312 314 313 311 310 310
Wind_Speed
20 21 22 21 21 21 22 18 15 14 15 13 11 9 9 8 6 6 5 4 4 3 2 3 1 1 4 5 6 2 8 8 6 7 13 9 6 3 5 4 5 13 15 14 17 18 20
22 22 23 22 24 21 23 21 17 15 14 14 13 11 10 9 8 7 6 6 5 5 4 3 2 2 1 10 9 16 10 6 3 8 11 12 6 6 7 6 10 6 10 19 20 18 19
27 24 23 23 24 24 22 22 19 17 16 13 16 13 11 11 9 8 6 7 7 7 6 5 3 3 5 12 7 7 22 14 8 3 1 19 20 4 5 5 5 9 14 16 17 21 15
31 29 26 22 24 25 24 23 21 19 17 16 15 16 14 12 12 8 8 7 7 7 6 5 3 5 6 6 16 25 7 6 6 9 13 15 6 3 4 5 6 4 5 14 12 10 12
32 33 33 25 25 24 25 24 23 21 19 18 16 16 15 11 11 9 6 6 6 6 5 4 4 4 7 3 13 18 16 5 5 8 13 14 6 4 4 3 4 4 9 8 6 7 6
32 33 33 31 26 27 25 24 22 21 20 20 18 17 16 12 11 9 7 3 1 5 3 3 5 1 5 4 7 16 16 15 6 4 4 4 4 5 2 4 12 8 6 11 8 6 12
32 31 33 36 36 29 27 27 24 22 21 21 20 18 17 14 11 11 10 4 3 0 6 9 8 4 4 9 5 10 17 9 6 0 4 5 6 11 11 9 11 8 16 13 11 9 12
32 33 33 34 32 30 28 29 26 24 22 22 20 20 17 16 12 13 11 4 2 3 5 17 16 15 15 4 4 7 12 9 9 15 4 7 17 11 10 12 10 14 15 21 15 15 8
34 33 32 35 34 37 33 28 27 25 23 21 20 20 19 16 13 13 17 9 5 2 4 6 15 12 15 13 12 9 12 10 9 9 12 16 5 15 12 13 14 16 17 16 16 14 15
35 36 35 36 31 33 31 19 23 26 25 21 19 20 22 17 9 13 8 18 8 2 3 4 3 5 7 3 6 21 25 11 7 16 12 14 13 16 12 18 14 17 16 15 16 10 10
36 37 36 36 34 31 23 23 20 23 27 23 22 23 26 25 8 10 7 16 15 3 4 6 5 2 2 8 8 7 19 16 15 10 9 8 7 14 18 24 16 15 13 12 11 12 15
35 38 37 35 36 33 26 26 20 23 25 26 25 27 27 21 7 12 17 21 9 3 8 6 5 4 3 9 6 1 7 9 1 13 14 15 3 4 15 15 16 3 2 8 6 6 11
36 39 37 37 36 36 22 22 24 20 24 29 28 30 31 22 9 22 26 7 3 4 2 5 4 6 8 9 12 8 5 12 5 5 7 6 15 5 3 2 6 4 3 4 5 6 10
37 38 37 36 34 29 31 23 26 21 23 35 33 31 29 19 19 27 16 3 6 5 6 3 3 8 7 8 10 11 3 7 13 6 1 6 5 13 10 10 7 8 14 6 7 6 7
35 37 37 38 33 42 27 25 28 19 19 35 36 30 22 18 28 31 4 4 6 5 3 6 5 6 5 7 5 10 12 5 7 16 7 5 8 4 14 12 13 7 12 19 4 4 3
36 37 37 37 38 46 21 24 28 33 20 40 28 21 17 27 37 19 2 6 5 1 6 5 9 10 7 7 9 9 8 9 8 15 16 3 6 3 9 10 11 11 11 12 5 5 6
35 36 38 38 38 42 22 17 25 25 14 44 19 6 21 33 23 5 3 7 4 6 8 6 7 4 5 7 10 6 6 7 13 11 18 9 6 6 2 12 16 12 7 8 4 8 2
35 35 37 37 37 39 25 24 28 30 19 33 4 5 31 38 7 4 5 5 4 3 4 11 6 7 5 10 10 5 10 7 7 6 14 7 4 5 17 9 13 16 14 10 6 7 9
34 35 37 37 38 40 28 28 36 15 16 16 6 3 27 26 6 5 5 8 7 6 6 7 9 11 9 8 4 13 7 9 13 9 13 9 4 5 6 6 5 14 13 9 9 4 12
34 34 36 37 39 41 35 30 33 31 34 13 4 4 4 4 0 10 8 8 9 5 13 9 4 5 8 5 10 6 12 6 10 13 21 12 4 5 5 4 5 7 21 12 10 6 4
32 32 35 35 37 40 33 34 30 25 37 9 2 2 5 8 7 5 10 4 9 5 9 4 5 12 5 5 5 6 4 2 4 17 5 5 5 3 16 21 16 13 16 17 19 19 7
30 31 33 33 36 38 38 36 32 37 10 3 4 3 2 6 10 14 8 5 5 4 5 3 5 7 11 7 6 3 7 4 4 9 4 4 4 4 5 7 14 15 21 19 10 2 7
29 30 31 31 34 35 35 32 29 31 28 2 3 2 2 5 8 7 7 11 12 11 9 12 11 7 10 15 9 2 4 4 6 10 7 9 3 5 4 12 13 3 9 7 3 1 4
28 29 30 29 32 35 36 32 29 27 35 13 6 4 3 3 3 7 3 11 14 14 11 6 9 12 5 1 5 2 4 5 2 4 8 7 6 3 4 5 2 4 1 6 7 4 3
28 27 30 28 31 33 32 30 25 23 30 2 5 4 3 3 6 8 8 6 3 1 3 11 13 5 8 2 3 2 1 1 4 4 2 3 4 2 2 2 4 3 3 3 6 4 1
27 26 28 28 29 32 33 30 28 24 28 15 12 10 2 3 4 4 3 1 1 3 4 4 1 3 3 2 3 4 3 3 3 2 4 5 3 2 3 1 1 3 3 4 1 1 3
27 26 26 27 28 31 30 27 25 22 26 11 6 9 4 2 3 3 2 2 2 1 2 2 4 1 2 2 1 3 4 6 6 5 5 4 3 5 2 2 6 4 2 4 4 4 3
26 24 24 25 26 29 28 26 24 21 21 6 4 17 6 2 2 3 4 3 1 3 2 1 2 1 2 5 4 3 3 5 4 4 7 7 5 3 3 2 6 4 2 4 4 1 5
25 25 24 25 26 28 27 26 23 21 21 16 4 16 15 1 1 1 4 7 5 5 0 2 2 5 4 3 3 2 2 4 5 4 3 4 6 6 6 5 2 2 2 2 4 5 4
Wind_Direction
297 300 303 285 292 286 287 280 273 275 271 263 250 250 253 264 271 275 281 286 295 308 313 300 268 209 150 233 243 199 119 86 115 200 205 210 248 232 236 253 264 248 243 242 234 240 259
286 292 291 292 280 286 288 275 274 266 270 259 245 242 247 246 255 266 270 275 271 272 281 274 265 228 213 242 263 245 250 256 146 164 200 221 226 223 275 231 248 291 270 246 247 238 247
335 296 287 287 287 281 281 275 273 267 261 258 241 239 246 246 243 257 268 279 268 260 266 267 278 210 237 231 249 354 229 211 232 273 266 220 236 212 337 322 325 265 259 263 254 243 250
332 327 311 282 283 277 278 272 271 264 258 252 238 239 245 240 238 244 267 277 273 251 243 252 269 209 247 241 264 265 290 253 228 249 267 272 270 285 202 292 321 281 271 241 245 256 249
330 332 329 317 283 276 272 269 268 259 255 251 241 234 238 236 231 237 246 266 263 232 228 231 212 193 263 272 240 245 233 233 228 223 239 258 271 219 308 179 263 250 261 269 274 238 252
323 326 326 316 296 274 269 267 265 255 253 248 240 232 228 223 223 225 221 216 190 201 203 203 249 290 264 227 227 226 223 225 230 339 332 211 213 215 190 205 234 246 231 258 247 230 242
332 326 321 321 319 270 271 265 259 254 252 244 238 230 221 213 216 201 186 138 68 221 214 194 194 203 254 211 195 203 216 230 233 3 217 257 212 217 218 230 253 277 282 278 266 241 225
332 329 322 321 318 315 278 265 257 253 247 241 234 220 218 207 204 196 187 174 190 100 267 231 248 226 245 117 227 212 187 191 199 220 202 272 244 217 217 221 225 241 261 268 277 277 231
332 329 327 322 317 312 312 261 256 249 241 234 226 212 198 198 189 186 196 185 197 29 273 219 232 234 221 218 228 209 175 202 197 208 203 223 146 210 217 226 231 231 232 250 254 297 297
335 329 329 328 316 317 299 311 263 253 238 230 217 205 188 177 176 189 196 207 204 246 281 214 233 264 200 177 248 212 191 175 217 206 205 241 235 248 229 229 222 240 236 255 260 261 257
333 331 328 328 321 315 297 313 283 261 242 220 208 193 184 176 157 167 173 177 190 142 308 146 168 250 166 181 134 214 200 211 205 192 183 219 162 207 225 236 212 253 240 262 255 254 268
330 330 327 328 330 317 293 291 293 268 245 214 198 189 183 171 134 169 146 141 139 115 249 172 144 190 169 197 227 141 186 201 235 233 233 244 284 215 234 244 232 203 342 291 243 275 258
329 329 328 330 333 325 291 283 293 282 245 206 191 186 182 177 162 152 139 119 142 202 158 182 189 186 209 195 216 204 195 203 186 193 214 244 253 255 101 260 235 149 208 231 225 217 242
328 328 328 331 330 319 313 295 315 278 243 200 185 180 178 172 181 157 145 125 207 206 214 126 167 195 197 193 212 214 185 211 214 228 21 198 267 197 182 205 197 190 197 215 207 208 224
330 329 329 333 332 327 318 293 306 294 228 193 173 162 172 179 176 164 144 196 209 202 82 154 162 203 198 216 213 204 216 211 217 197 186 202 237 282 192 174 188 185 202 217 328 277 208
328 329 332 337 335 326 313 314 300 312 231 178 157 158 176 178 170 164 168 227 222 202 120 162 205 191 197 197 191 190 189 195 212 199 196 181 278 211 246 178 213 214 162 198 174 248 183
330 331 329 335 335 329 314 306 300 304 238 175 147 153 161 177 159 179 208 209 252 208 152 198 206 217 244 177 187 195 217 246 204 193 188 172 209 171 250 197 185 188 211 202 185 234 289
334 332 329 332 334 335 333 334 301 299 276 161 131 147 160 160 176 195 212 184 245 206 212 225 227 241 248 178 190 226 216 220 214 170 182 173 204 225 237 249 195 196 220 181 187 198 230
334 333 332 332 337 336 342 314 329 345 210 125 136 114 161 162 187 197 210 226 240 221 218 203 211 221 209 157 209 211 207 232 230 153 156 165 230 254 172 187 210 198 196 208 205 116 253
331 333 333 331 337 337 343 336 334 345 169 151 147 135 138 190 221 197 209 226 224 206 241 247 240 277 254 252 198 198 227 255 169 169 136 152 239 250 279 332 156 178 188 185 210 239 219
328 333 332 331 335 338 349 345 334 339 184 154 135 147 144 179 211 213 196 205 214 212 213 223 232 220 239 250 205 191 206 240 170 141 88 105 284 292 271 252 252 176 182 197 219 237 120
329 332 334 330 335 341 344 346 332 338 234 108 128 156 152 167 189 201 213 179 230 187 216 232 210 209 216 237 207 226 178 172 194 159 122 121 270 281 279 178 187 178 200 208 233 119 110
329 332 333 333 335 337 340 341 334 341 351 138 100 31 142 154 168 180 206 216 217 218 216 227 245 242 221 246 250 321 338 246 190 166 153 149 237 301 343 163 168 229 195 180 185 297 112
328 331 331 331 332 335 338 341 339 332 338 297 145 145 117 150 173 214 246 213 225 216 219 195 225 234 241 180 122 41 27 326 124 95 148 179 202 262 312 14 57 236 345 204 176 204 171
326 331 331 331 332 334 336 339 332 328 342 291 151 123 127 156 196 228 277 249 56 172 241 270 252 225 174 238 100 163 339 348 43 76 39 172 159 304 26 299 272 353 15 109 160 249 113
325 328 331 329 332 336 338 336 333 320 328 329 169 125 105 114 210 134 283 245 135 335 252 232 93 287 142 178 127 172 167 152 258 92 265 157 111 71 355 22 123 267 326 330 37 275 42
326 326 330 328 332 337 334 335 330 322 330 319 171 174 111 155 254 150 252 253 150 5 271 299 155 102 338 115 213 164 176 159 167 186 172 147 175 181 264 303 291 254 296 314 111 235 326
325 327 329 328 330 333 335 335 329 325 332 323 182 191 161 170 225 167 171 159 172 165 240 151 122 175 143 156 210 213 149 194 154 174 182 177 151 165 165 221 281 172 57 158 184 62 96
324 328 327 328 328 331 334 336 334 321 330 334 143 188 196 151 265 217 242 244 208 160 155 205 324 191 171 146 218 151 177 152 147 193 216 183 186 166 184 207 211 108 113 107 139 126 113